Time,TemperatureF,DewpointF,PressureIn,WindDirection,WindDirectionDegrees,WindSpeedMPH,WindSpeedGustMPH,Humidity,HourlyPrecipIn,Conditions,Clouds,dailyrainin,SolarRadiationWatts/m^2,SoftwareType,DateUTC
2013-03-07 03:03:00,53.0,22.0,30.05,NNW,341,8.0,10.0,28,-99.99,,,-99.99,0.000000,,2013-03-07 10:03:00,
2013-03-07 03:13:00,53.0,22.0,30.04,NNW,329,7.0,9.0,28,-99.99,,,-99.99,0.000000,,2013-03-07 10:13:00,
2013-03-07 03:23:00,53.0,22.0,30.04,NNW,329,7.0,9.0,28,-99.99,,,-99.99,0.000000,,2013-03-07 10:23:00,
2013-03-07 03:33:00,52.0,22.0,30.04,NW,317,7.0,10.0,29,-99.99,,,-99.99,0.000000,,2013-03-07 10:33:00,
2013-03-07 03:42:00,52.0,22.0,30.03,NW,326,5.0,8.0,30,-99.99,,,-99.99,0.000000,,2013-03-07 10:42:00,
2013-03-07 03:53:00,52.0,22.0,30.03,NW,326,5.0,8.0,30,-99.99,,,-99.99,0.000000,,2013-03-07 10:53:00,
2013-03-07 04:03:00,52.0,22.0,30.03,NW,322,6.0,7.0,30,-99.99,,,-99.99,0.000000,,2013-03-07 11:03:00,
2013-03-07 04:12:00,52.0,22.0,30.03,NNW,342,5.0,7.0,30,-99.99,,,-99.99,0.000000,,2013-03-07 11:12:00,
2013-03-07 04:23:00,52.0,22.0,30.03,NNW,342,5.0,7.0,30,-99.99,,,-99.99,0.000000,,2013-03-07 11:23:00,
2013-03-07 04:33:00,51.0,22.0,30.03,NW,315,9.0,13.0,31,-99.99,,,-99.99,0.000000,,2013-03-07 11:33:00,
2013-03-07 04:43:00,52.0,22.0,30.03,NW,305,8.0,12.0,30,-99.99,,,-99.99,0.000000,,2013-03-07 11:43:00,
2013-03-07 04:54:00,52.0,22.0,30.03,NW,305,8.0,12.0,30,-99.99,,,-99.99,0.000000,,2013-03-07 11:54:00,
2013-03-07 05:03:00,58.0,22.0,30.03,West,277,7.0,11.0,24,-99.99,,,-99.99,0.000000,,2013-03-07 12:03:00,
2013-03-07 05:12:00,58.0,21.0,30.04,SW,231,5.0,11.0,24,-99.99,,,-99.99,0.000000,,2013-03-07 12:12:00,
2013-03-07 05:23:00,58.0,21.0,30.04,SW,231,5.0,11.0,24,-99.99,,,-99.99,0.000000,,2013-03-07 12:23:00,
2013-03-07 05:33:00,56.0,22.0,30.04,WSW,256,7.0,11.0,25,-99.99,,,-99.99,0.000000,,2013-03-07 12:33:00,
2013-03-07 05:42:00,56.0,22.0,30.04,WSW,256,7.0,11.0,25,-99.99,,,-99.99,0.000000,,2013-03-07 12:42:00,
2013-03-07 05:53:00,56.0,22.0,30.04,WSW,256,7.0,11.0,25,-99.99,,,-99.99,0.000000,,2013-03-07 12:53:00,
2013-03-07 06:02:00,56.0,22.0,30.05,West,263,8.0,11.0,25,-99.99,,,-99.99,0.000000,,2013-03-07 13:02:00,
2013-03-07 06:12:00,53.0,21.0,30.05,North,4,4.0,9.0,28,-99.99,,,-99.99,0.000000,,2013-03-07 13:12:00,
2013-03-07 06:22:00,53.0,21.0,30.05,North,4,4.0,9.0,28,-99.99,,,-99.99,0.000000,,2013-03-07 13:22:00,
2013-03-07 06:32:00,53.0,21.0,30.06,NW,318,6.0,9.0,28,-99.99,,,-99.99,0.000000,,2013-03-07 13:32:00,
2013-03-07 06:42:00,53.0,21.0,30.06,North,359,5.0,9.0,28,-99.99,,,-99.99,0.000000,,2013-03-07 13:42:00,
2013-03-07 06:53:00,53.0,21.0,30.06,North,359,5.0,9.0,28,-99.99,,,-99.99,0.000000,,2013-03-07 13:53:00,
2013-03-07 07:02:00,53.0,21.0,30.06,North,359,5.0,9.0,28,-99.99,,,-99.99,0.000000,,2013-03-07 14:02:00,
2013-03-07 07:12:00,53.0,21.0,30.06,North,359,5.0,9.0,28,-99.99,,,-99.99,0.000000,,2013-03-07 14:12:00,
2013-03-07 09:02:00,62.0,23.0,30.12,ESE,123,1.0,4.0,21,-99.99,,,-99.99,400.269989,,2013-03-07 16:02:00,
2013-03-07 09:12:00,63.0,23.0,30.12,ESE,115,3.0,7.0,21,-99.99,,,-99.99,509.049988,,2013-03-07 16:12:00,
2013-03-07 09:23:00,63.0,23.0,30.12,ESE,115,3.0,7.0,21,-99.99,,,-99.99,509.049988,,2013-03-07 16:23:00,
2013-03-07 09:32:00,64.0,23.0,30.12,ESE,116,2.0,6.0,20,-99.99,,,-99.99,573.909973,,2013-03-07 16:32:00,
2013-03-07 09:42:00,63.0,22.0,30.12,SE,125,4.0,9.0,21,-99.99,,,-99.99,638.760010,,2013-03-07 16:42:00,
2013-03-07 09:53:00,63.0,22.0,30.12,SE,125,4.0,9.0,21,-99.99,,,-99.99,638.760010,,2013-03-07 16:53:00,
2013-03-07 10:02:00,62.0,23.0,30.12,ESE,112,5.0,7.0,22,-99.99,,,-99.99,676.409973,,2013-03-07 17:02:00,
2013-03-07 10:12:00,62.0,22.0,30.12,ESE,108,5.0,8.0,21,-99.99,,,-99.99,732.200012,,2013-03-07 17:12:00,
2013-03-07 10:22:00,62.0,22.0,30.12,ESE,108,5.0,8.0,21,-99.99,,,-99.99,732.200012,,2013-03-07 17:22:00,
2013-03-07 10:32:00,63.0,22.0,30.12,ESE,102,5.0,10.0,21,-99.99,,,-99.99,774.739990,,2013-03-07 17:32:00,
2013-03-07 10:43:00,64.0,22.0,30.12,ESE,110,6.0,11.0,20,-99.99,,,-99.99,834.010010,,2013-03-07 17:43:00,
2013-03-07 10:54:00,64.0,22.0,30.12,ESE,110,6.0,11.0,20,-99.99,,,-99.99,834.010010,,2013-03-07 17:54:00,
2013-03-07 11:03:00,66.0,21.0,30.11,ESE,118,8.0,14.0,18,-99.99,,,-99.99,838.190002,,2013-03-07 18:03:00,
2013-03-07 11:12:00,65.0,22.0,30.11,ESE,121,7.0,11.0,19,-99.99,,,-99.99,358.429993,,2013-03-07 18:12:00,
2013-03-07 11:22:00,65.0,22.0,30.11,ESE,121,7.0,11.0,19,-99.99,,,-99.99,358.429993,,2013-03-07 18:22:00,
2013-03-07 11:32:00,65.0,22.0,30.11,ESE,106,6.0,9.0,18,-99.99,,,-99.99,504.170013,,2013-03-07 18:32:00,
2013-03-07 11:42:00,66.0,21.0,30.10,ESE,118,5.0,11.0,17,-99.99,,,-99.99,382.140015,,2013-03-07 18:42:00,
2013-03-07 11:53:00,66.0,21.0,30.10,ESE,118,5.0,11.0,17,-99.99,,,-99.99,382.140015,,2013-03-07 18:53:00,
2013-03-07 12:03:00,67.0,21.0,30.10,SE,125,6.0,13.0,17,-99.99,,,-99.99,872.359985,,2013-03-07 19:03:00,
2013-03-07 12:12:00,68.0,21.0,30.10,SSW,193,5.0,12.0,16,-99.99,,,-99.99,1007.650024,,2013-03-07 19:12:00,
2013-03-07 12:23:00,68.0,21.0,30.10,SSW,193,5.0,12.0,16,-99.99,,,-99.99,1007.650024,,2013-03-07 19:23:00,
2013-03-07 12:34:00,69.0,18.0,30.10,West,274,9.0,23.0,14,-99.99,,,-99.99,788.679993,,2013-03-07 19:34:00,
2013-03-07 13:02:00,69.0,16.0,30.08,West,267,11.0,20.0,13,-99.99,,,-99.99,716.159973,,2013-03-07 20:02:00,
2013-03-07 13:13:00,68.0,17.0,30.07,West,276,11.0,25.0,13,-99.99,,,-99.99,391.899994,,2013-03-07 20:13:00,
2013-03-07 13:22:00,68.0,17.0,30.07,West,276,11.0,25.0,13,-99.99,,,-99.99,391.899994,,2013-03-07 20:22:00,
2013-03-07 13:33:00,70.0,15.0,30.06,West,265,13.0,30.0,12,-99.99,,,-99.99,988.820007,,2013-03-07 20:33:00,
2013-03-07 13:42:00,70.0,15.0,30.06,WSW,241,10.0,22.0,12,-99.99,,,-99.99,857.719971,,2013-03-07 20:42:00,
2013-03-07 13:54:00,70.0,15.0,30.06,WSW,241,10.0,22.0,12,-99.99,,,-99.99,857.719971,,2013-03-07 20:54:00,
2013-03-07 14:02:00,70.0,16.0,30.05,SW,230,9.0,21.0,12,-99.99,,,-99.99,599.010010,,2013-03-07 21:02:00,
2013-03-07 14:12:00,71.0,17.0,30.04,SW,216,9.0,22.0,12,-99.99,,,-99.99,1095.510010,,2013-03-07 21:12:00,
2013-03-07 14:22:00,71.0,17.0,30.04,SW,216,9.0,22.0,12,-99.99,,,-99.99,1095.510010,,2013-03-07 21:22:00,
2013-03-07 14:32:00,71.0,14.0,30.04,SW,233,8.0,28.0,10,-99.99,,,-99.99,918.390015,,2013-03-07 21:32:00,
2013-03-07 14:42:00,71.0,13.0,30.03,SSW,198,11.0,24.0,10,-99.99,,,-99.99,859.109985,,2013-03-07 21:42:00,
2013-03-07 14:53:00,71.0,13.0,30.03,SSW,198,11.0,24.0,10,-99.99,,,-99.99,859.109985,,2013-03-07 21:53:00,
2013-03-07 15:02:00,70.0,11.0,30.03,SSW,212,9.0,23.0,9,-99.99,,,-99.99,708.489990,,2013-03-07 22:02:00,
2013-03-07 15:12:00,70.0,12.0,30.02,SSW,210,7.0,22.0,10,-99.99,,,-99.99,559.960022,,2013-03-07 22:12:00,
2013-03-07 15:22:00,70.0,12.0,30.02,SSW,210,7.0,22.0,10,-99.99,,,-99.99,559.960022,,2013-03-07 22:22:00,
2013-03-07 15:32:00,71.0,11.0,30.02,West,259,10.0,24.0,9,-99.99,,,-99.99,478.369995,,2013-03-07 22:32:00,
2013-03-07 15:42:00,70.0,11.0,30.02,SW,230,12.0,27.0,10,-99.99,,,-99.99,379.350006,,2013-03-07 22:42:00,
2013-03-07 15:54:00,69.0,13.0,30.02,SW,233,10.0,26.0,11,-99.99,,,-99.99,332.630005,,2013-03-07 22:54:00,
2013-03-07 16:02:00,69.0,13.0,30.02,SW,233,10.0,26.0,11,-99.99,,,-99.99,332.630005,,2013-03-07 23:02:00,
2013-03-07 16:13:00,69.0,14.0,30.02,SW,222,10.0,19.0,12,-99.99,,,-99.99,262.890015,,2013-03-07 23:13:00,
2013-03-07 16:22:00,69.0,14.0,30.02,SW,222,10.0,19.0,12,-99.99,,,-99.99,262.890015,,2013-03-07 23:22:00,
2013-03-07 16:33:00,69.0,14.0,30.02,SW,231,9.0,23.0,11,-99.99,,,-99.99,322.170013,,2013-03-07 23:33:00,
2013-03-07 16:43:00,70.0,14.0,30.02,SW,217,9.0,21.0,11,-99.99,,,-99.99,481.859985,,2013-03-07 23:43:00,
2013-03-07 16:54:00,70.0,14.0,30.02,SW,217,9.0,21.0,11,-99.99,,,-99.99,481.859985,,2013-03-07 23:54:00,
2013-03-07 17:03:00,70.0,14.0,30.02,SW,217,9.0,21.0,11,-99.99,,,-99.99,481.859985,,2013-03-08 00:03:00,
2013-03-07 17:13:00,68.0,14.0,30.02,SW,227,8.0,24.0,12,-99.99,,,-99.99,120.639999,,2013-03-08 00:13:00,
2013-03-07 17:23:00,68.0,14.0,30.02,SW,227,8.0,24.0,12,-99.99,,,-99.99,120.639999,,2013-03-08 00:23:00,
2013-03-07 17:34:00,68.0,15.0,30.01,West,263,8.0,19.0,12,-99.99,,,-99.99,136.679993,,2013-03-08 00:34:00,
2013-03-07 17:43:00,68.0,15.0,30.02,WSW,252,8.0,19.0,13,-99.99,,,-99.99,109.480003,,2013-03-08 00:43:00,
2013-03-07 17:54:00,68.0,15.0,30.02,WSW,252,8.0,19.0,13,-99.99,,,-99.99,109.480003,,2013-03-08 00:54:00,
2013-03-07 18:02:00,67.0,16.0,30.02,SW,234,6.0,18.0,13,-99.99,,,-99.99,71.129997,,2013-03-08 01:02:00,
2013-03-07 18:11:00,67.0,16.0,30.03,WSW,247,7.0,19.0,13,-99.99,,,-99.99,79.500000,,2013-03-08 01:11:00,
2013-03-07 18:21:00,67.0,16.0,30.03,WSW,247,7.0,19.0,13,-99.99,,,-99.99,79.500000,,2013-03-08 01:21:00,
2013-03-07 18:42:00,66.0,16.0,30.02,SW,233,6.0,24.0,14,-99.99,,,-99.99,4.880000,,2013-03-08 01:42:00,
2013-03-07 18:52:00,66.0,16.0,30.02,SW,233,6.0,24.0,14,-99.99,,,-99.99,4.880000,,2013-03-08 01:52:00,
2013-03-07 19:01:00,66.0,16.0,30.02,WSW,237,7.0,15.0,14,-99.99,,,-99.99,0.700000,,2013-03-08 02:01:00,
2013-03-07 19:11:00,66.0,16.0,30.02,SW,228,7.0,21.0,14,-99.99,,,-99.99,0.000000,,2013-03-08 02:11:00,
2013-03-07 19:22:00,66.0,16.0,30.02,SW,228,7.0,21.0,14,-99.99,,,-99.99,0.000000,,2013-03-08 02:22:00,
2013-03-07 19:32:00,66.0,16.0,30.03,SW,224,7.0,12.0,14,-99.99,,,-99.99,0.000000,,2013-03-08 02:32:00,
2013-03-07 19:42:00,65.0,16.0,30.03,SW,216,6.0,13.0,14,-99.99,,,-99.99,0.000000,,2013-03-08 02:42:00,
2013-03-07 19:53:00,65.0,16.0,30.03,SW,216,6.0,13.0,14,-99.99,,,-99.99,0.000000,,2013-03-08 02:53:00,
2013-03-07 20:02:00,65.0,16.0,30.03,SW,219,6.0,10.0,14,-99.99,,,-99.99,0.000000,,2013-03-08 03:02:00,
2013-03-07 20:12:00,65.0,15.0,30.03,WSW,238,5.0,9.0,14,-99.99,,,-99.99,0.000000,,2013-03-08 03:12:00,
2013-03-07 20:22:00,65.0,15.0,30.03,WSW,238,5.0,9.0,14,-99.99,,,-99.99,0.000000,,2013-03-08 03:22:00,
2013-03-07 20:32:00,64.0,16.0,30.04,WSW,253,5.0,16.0,15,-99.99,,,-99.99,0.000000,,2013-03-08 03:32:00,
2013-03-07 20:42:00,65.0,18.0,30.04,WSW,241,4.0,11.0,16,-99.99,,,-99.99,0.000000,,2013-03-08 03:42:00,
2013-03-07 20:53:00,65.0,18.0,30.04,WSW,241,4.0,11.0,16,-99.99,,,-99.99,0.000000,,2013-03-08 03:53:00,
2013-03-07 21:01:00,65.0,20.0,30.04,WSW,254,5.0,25.0,17,-99.99,,,-99.99,0.000000,,2013-03-08 04:01:00,
2013-03-07 21:11:00,65.0,20.0,30.04,WSW,246,8.0,23.0,17,-99.99,,,-99.99,0.000000,,2013-03-08 04:11:00,
2013-03-07 21:22:00,65.0,20.0,30.04,WSW,246,8.0,23.0,17,-99.99,,,-99.99,0.000000,,2013-03-08 04:22:00,
2013-03-07 21:32:00,64.0,20.0,30.05,WSW,258,12.0,25.0,18,-99.99,,,-99.99,0.000000,,2013-03-08 04:32:00,
2013-03-07 21:42:00,64.0,20.0,30.05,West,259,15.0,23.0,18,-99.99,,,-99.99,0.000000,,2013-03-08 04:42:00,
2013-03-07 22:02:00,63.0,20.0,30.04,West,262,13.0,19.0,19,-99.99,,,-99.99,0.000000,,2013-03-08 05:02:00,
2013-03-07 22:12:00,63.0,20.0,30.05,West,270,13.0,21.0,19,-99.99,,,-99.99,0.000000,,2013-03-08 05:12:00,
2013-03-07 22:22:00,63.0,20.0,30.05,West,270,13.0,21.0,19,-99.99,,,-99.99,0.000000,,2013-03-08 05:22:00,
2013-03-07 22:32:00,63.0,20.0,30.05,West,270,13.0,21.0,19,-99.99,,,-99.99,0.000000,,2013-03-08 05:32:00,
2013-03-07 22:42:00,62.0,20.0,30.06,West,271,13.0,23.0,19,-99.99,,,-99.99,0.000000,,2013-03-08 05:42:00,
2013-03-07 22:52:00,62.0,20.0,30.06,West,271,13.0,23.0,19,-99.99,,,-99.99,0.000000,,2013-03-08 05:52:00,
2013-03-07 23:01:00,62.0,19.0,30.06,West,273,15.0,24.0,18,-99.99,,,-99.99,0.000000,,2013-03-08 06:01:00,
2013-03-07 23:11:00,62.0,19.0,30.06,West,278,14.0,21.0,18,-99.99,,,-99.99,0.000000,,2013-03-08 06:11:00,
2013-03-07 23:22:00,62.0,19.0,30.06,West,278,14.0,21.0,18,-99.99,,,-99.99,0.000000,,2013-03-08 06:22:00,
2013-03-07 23:32:00,62.0,20.0,30.06,West,276,15.0,22.0,19,-99.99,,,-99.99,0.000000,,2013-03-08 06:32:00,
2013-03-07 23:42:00,61.0,20.0,30.06,West,280,16.0,25.0,19,-99.99,,,-99.99,0.000000,,2013-03-08 06:42:00,
2013-03-07 23:52:00,61.0,20.0,30.06,West,280,16.0,25.0,19,-99.99,,,-99.99,0.000000,,2013-03-08 06:52:00,